Flag for Brazil Weather past 2 weeks in Porto Alegre, Rio Grande do Sul, Brazil

Now
66 °F

Clear.


Feels Like: 66 °F
Forecast: 58 / 75 °F
Wind: No wind

Location: Porto Alegre Aero-Porto

Current Time: Apr 27, 2015 at 11:38:07 PM

Latest Report: Apr 27, 2015 at 11:00 PM


Visibility: 5 mi

Pressure: 30.07 "Hg

Humidity: 94%

Dew point: 64 °F

Location of Porto AlegreLocation

Historic Weather in Porto Alegre — Graph

°F

Porto Alegre temperature yesterday

Maximum temperature yesterday: 79 °F (at 3:00 PM)
Minimum temperature yesterday: 55 °F (at 2:00 AM)
Average temperature yesterday: 66 °F

Past Weeks' High & Low Weather Summary

 TemperatureHumidityPressure
High88 °F (Apr 14, 4:00 PM)100% (Apr 15, 5:00 AM)30.21 "Hg (Apr 15, 5:00 AM)
Low55 °F (Apr 19, 5:00 AM)44% (Apr 22, 12:00 PM)29.77 "Hg (Apr 20, 3:00 PM)
Average70 °F82%30.01 "Hg
* Reported Apr 12 10:00 PM — Apr 27 10:00 PM, Porto Alegre, Weather by CustomWeather, © 2015

Note: Actual official high and low records may vary slightly from our data, if they occured in-between our weather recording intervals... More about our weather records

Advertising

Porto Alegre weather history for previous 24 hours

 ConditionsComfort  
Time TempWeatherWind HumidityBarometerVisibility
10:00 PM
Mon, Apr 27
68 °FClear.5 mph88%30.07 "Hg10 mi
9:00 PM68 °FClear.3 mph78%30.07 "Hg10 mi
8:00 PM68 °FClear.5 mph69%30.04 "Hg10 mi
7:00 PM72 °FClear.5 mph57%30.04 "Hg10 mi
6:00 PM73 °FClear.8 mph53%30.01 "Hg10 mi
5:00 PM75 °FClear.8 mph54%30.01 "Hg10 mi
4:00 PM77 °FPassing clouds.6 mph54%30.01 "HgN/A
3:00 PM77 °FScattered clouds.7 mph57%30.01 "HgN/A
2:00 PM77 °FScattered clouds.8 mph61%30.04 "HgN/A
1:00 PM77 °FPassing clouds.5 mph61%30.07 "HgN/A
12:00 PM75 °FPassing clouds.5 mph61%30.09 "HgN/A
11:00 AM73 °FPassing clouds.5 mph69%30.12 "HgN/A
10:00 AM70 °FSunny.5 mph78%30.12 "Hg10 mi
9:00 AM66 °FClear.5 mph94%30.12 "Hg4 mi
8:00 AM61 °FFog.2 mph100%30.09 "Hg2 mi
7:00 AM61 °FFog.1 mph100%30.07 "Hg2 mi
6:00 AM59 °FFog.1 mph100%30.07 "Hg2 mi
5:00 AM59 °FFog.2 mph100%30.04 "Hg2 mi
4:00 AM59 °FFog.3 mph100%30.04 "Hg3 mi
3:00 AM61 °FClear.No wind94%30.07 "Hg4 mi
2:00 AM63 °FClear.No wind94%30.07 "Hg10 mi
1:00 AM63 °FClear.3 mph94%30.07 "Hg10 mi
12:00 AM63 °FClear.6 mph94%30.09 "Hg10 mi
11:00 PM
Sun, Apr 26
66 °FClear.7 mph83%30.09 "Hg10 mi
Weather by CustomWeather, © 2015

See weather overviewHow to use our weather pages